Wind_Speed
3 3 5 5 5 5 5 5 6 6 6 6 6 6 5 5 4 3 3 3 4 2 2 2 2 2 2 1 0 1 1 1 1 1 1 2 3 2 2 2 2 2 2
2 2 3 4 5 5 5 6 6 5 5 5 5 5 5 4 4 3 2 2 2 2 2 2 2 2 1 1 1 1 1 1 1 1 1 2 3 3 3 3 4 3 3
2 2 2 3 4 4 5 5 5 4 4 5 4 4 4 3 3 3 3 2 2 2 2 2 2 2 1 1 1 1 1 0 1 2 2 2 2 3 3 3 4 4 3
2 3 3 3 4 4 5 5 4 4 3 4 3 3 3 3 3 3 4 3 3 2 2 2 1 1 2 1 1 0 1 1 1 2 2 2 2 2 2 3 3 3 4
2 3 3 4 4 4 4 4 4 4 3 3 2 2 2 2 2 2 3 2 2 1 1 2 2 1 1 1 1 1 1 1 1 1 2 1 1 2 2 2 3 4 3
2 2 2 3 3 3 3 4 4 3 3 2 2 2 2 1 1 1 2 2 1 1 1 1 1 1 0 1 1 1 2 2 1 1 1 1 1 1 1 1 2 3 4
2 2 2 3 3 3 4 3 4 4 3 2 2 1 1 1 1 1 1 1 2 2 2 2 1 1 0 1 1 1 1 2 1 1 1 2 1 1 1 1 2 2 3
3 3 4 4 4 4 4 4 4 3 3 2 2 1 1 1 1 1 1 1 1 1 2 2 1 1 1 1 2 2 2 2 1 1 2 2 1 1 1 2 2 2 2
4 4 5 5 5 5 4 4 4 3 2 2 3 2 2 2 2 1 2 2 2 1 2 2 2 2 1 2 2 2 2 2 2 2 2 2 2 2 1 2 2 2 3
5 5 5 5 5 5 5 5 4 3 3 2 2 2 2 3 3 2 2 2 2 1 1 2 2 2 2 2 3 2 1 2 2 2 2 2 2 3 3 3 3 4 5
5 5 4 4 5 5 5 5 4 3 3 2 2 2 3 3 4 3 3 3 2 1 1 2 2 2 2 2 2 2 2 2 2 2 2 2 2 3 3 3 4 5 5
5 5 4 4 4 4 4 4 4 4 3 3 3 3 3 4 4 4 4 4 2 1 1 2 2 2 2 2 3 3 3 3 1 2 2 2 2 3 3 4 4 5 5
4 4 3 3 3 3 4 3 3 3 4 4 4 4 4 4 4 4 4 3 3 2 2 2 2 2 3 3 3 4 4 3 2 2 3 3 3 3 3 4 4 5 5
4 4 3 3 3 3 3 3 3 3 4 4 5 5 5 5 5 4 4 3 3 2 2 2 3 3 3 3 4 4 4 4 4 3 4 4 4 4 4 4 5 5 5
4 4 3 2 2 2 2 2 3 3 4 4 5 5 5 5 5 4 4 3 3 3 3 3 3 4 4 4 4 4 4 5 5 4 4 5 5 5 5 5 5 5 5
5 4 3 2 2 2 2 2 3 3 4 4 5 5 5 6 6 5 4 5 4 4 4 4 4 5 4 5 5 5 5 6 6 6 5 5 5 5 5 5 5 5 6
6 5 4 3 3 3 2 2 3 4 5 6 6 6 6 6 6 6 5 5 5 4 5 4 4 5 5 6 7 7 7 7 7 6 6 5 5 6 6 6 6 6 6
6 6 5 5 4 3 3 3 3 5 6 7 6 6 6 7 7 6 6 6 5 5 6 5 6 6 6 6 7 7 7 8 7 7 7 7 7 6 6 7 7 7 7
6 6 6 5 5 5 4 4 4 5 6 7 7 7 7 7 7 7 7 7 7 6 6 6 6 7 7 8 7 7 7 8 8 8 8 8 7 7 7 8 8 8 9
6 5 5 5 5 5 5 5 6 7 7 7 7 8 7 7 8 8 8 8 8 8 7 7 7 8 8 8 7 8 8 8 8 8 8 8 8 8 8 9 9 10 10
6 6 5 6 6 6 6 6 7 8 7 8 8 8 8 8 9 8 9 9 9 9 8 8 8 9 9 8 8 9 9 9 9 8 8 8 8 9 9 10 10 11 11
6 6 6 6 6 6 7 7 7 8 8 8 9 10 10 10 10 10 10 10 10 10 10 9 10 11 11 10 10 10 10 10 10 10 10 9 10 10 11 11 11 11 11
6 6 6 6 7 7 7 7 8 8 9 9 10 11 11 11 11 11 11 11 11 11 11 11 12 12 12 11 12 12 12 11 11 12 12 12 12 11 11 12 12 12 12
6 7 8 7 8 8 9 9 9 9 9 10 11 12 12 12 13 13 12 12 13 13 12 12 12 13 13 13 13 13 13 13 12 12 13 13 13 13 13 13 13 13 13
8 8 9 8 9 9 10 11 11 11 12 12 12 13 13 14 14 13 13 13 13 14 14 14 14 14 14 14 14 13 13 13 13 13 14 14 14 14 14 14 13 14 14
9 10 10 10 10 11 11 12 13 13 14 14 14 13 14 15 15 14 14 14 14 14 15 15 15 15 15 15 15 14 13 14 14 15 15 15 15 15 15 15 14 14 15
Wind_Direction
100 114 129 134 136 138 137 137 139 140 145 141 140 135 132 130 128 111 110 126 138 148 144 147 135 115 108 114 162 185 160 142 158 207 235 226 230 229 237 245 241 246 256
108 134 136 135 138 145 147 139 142 143 144 139 136 137 133 132 120 119 118 154 155 148 150 145 125 112 103 104 108 144 144 136 217 240 246 224 236 238 249 244 242 251 255
111 127 142 140 143 147 150 138 139 140 148 144 146 143 135 128 111 98 83 100 152 143 118 113 114 108 99 90 111 128 134 150 259 267 267 242 242 249 263 251 246 257 246
123 127 138 141 142 148 149 145 139 139 140 146 150 141 136 122 97 74 78 94 124 125 104 89 91 120 115 124 146 173 197 237 281 302 291 264 261 263 268 259 258 260 252
134 124 126 137 140 146 151 148 141 138 138 136 131 121 123 108 91 61 55 77 89 115 98 81 67 121 146 142 158 214 240 227 234 312 307 267 241 278 284 264 276 263 265
119 125 120 131 136 138 135 148 153 142 131 120 115 113 121 115 100 26 33 43 46 57 37 50 49 63 141 240 229 249 237 215 211 291 284 277 290 319 289 284 291 277 266
107 123 128 138 139 139 128 130 148 144 142 124 126 129 95 54 15 36 57 39 55 40 33 47 47 56 29 279 274 301 275 241 222 296 315 318 324 304 284 265 282 280 270
81 99 119 131 137 134 129 127 132 135 138 122 113 97 53 33 11 22 32 31 28 17 12 12 26 37 348 336 313 299 296 288 264 290 328 309 289 334 292 264 290 298 276
76 93 112 120 126 128 133 133 123 107 112 89 77 72 61 40 23 20 19 2 349 348 9 21 18 10 354 353 342 325 308 283 290 303 320 308 285 298 304 315 331 318 298
70 84 106 115 114 111 120 120 111 95 88 92 70 58 45 29 23 20 12 357 1 19 30 17 9 13 19 12 0 350 339 329 326 306 313 310 304 308 309 306 312 308 306
63 70 89 103 108 109 113 107 98 84 76 68 48 35 30 23 22 25 22 8 359 17 20 10 1 10 9 10 7 354 344 350 338 317 315 305 305 315 314 311 315 311 309
61 59 53 72 98 107 109 103 89 73 64 52 34 20 16 11 15 20 15 14 10 4 8 8 360 355 356 350 349 342 337 355 351 344 313 301 310 315 316 321 325 323 317
60 54 45 63 91 100 94 86 78 57 45 42 28 15 6 0 7 12 10 15 15 15 17 9 357 360 356 339 333 339 338 339 331 326 315 302 303 307 308 317 321 329 328
46 51 54 49 58 77 73 71 64 48 36 29 16 8 0 356 359 1 12 16 19 11 359 346 340 346 341 338 337 347 346 343 331 312 306 300 291 289 298 304 308 318 323
17 26 31 51 48 54 54 39 27 20 14 10 3 359 357 354 350 353 356 2 0 356 343 335 329 327 332 333 335 340 336 332 326 307 298 296 291 290 292 300 312 319 318
14 12 13 21 17 30 23 16 15 7 357 353 352 352 348 345 343 347 350 349 350 348 335 325 319 320 325 323 323 329 331 326 321 306 302 300 294 298 300 310 310 312 315
23 19 14 26 17 12 5 11 5 359 351 348 345 342 339 336 335 336 339 337 339 336 337 332 324 314 311 314 319 321 321 321 319 309 303 300 301 303 303 303 308 311 308
25 22 24 23 14 358 355 3 8 355 347 346 346 344 339 335 335 332 332 328 328 325 328 333 325 319 318 314 316 314 314 317 312 308 298 295 296 298 299 302 302 304 306
19 21 19 15 7 2 2 355 352 350 345 346 347 343 341 340 338 337 334 330 325 323 325 327 326 325 322 317 314 310 308 310 308 304 303 299 295 298 303 305 303 299 298
14 13 8 5 2 4 1 355 350 349 345 347 345 341 338 338 335 336 334 331 328 327 324 321 320 321 319 320 316 311 307 305 303 302 303 300 298 299 302 302 302 300 297
5 5 3 0 357 356 355 350 348 348 347 345 341 338 335 333 333 332 327 323 323 322 322 321 320 318 315 312 310 308 305 303 304 301 303 301 300 299 299 297 298 301 300
360 358 355 349 345 342 341 340 342 342 339 333 332 331 329 327 327 327 324 323 321 320 320 317 315 312 310 306 306 304 298 297 306 307 306 304 300 297 295 297 298 299 303
349 350 346 341 337 335 334 332 332 331 329 326 326 327 325 323 323 319 319 320 320 319 316 314 315 314 308 305 301 301 297 295 299 303 306 306 304 301 296 297 298 297 299
328 330 331 329 328 328 324 320 319 319 317 318 318 319 319 320 318 314 314 315 317 315 311 310 311 310 308 305 302 298 295 296 298 301 302 305 304 302 300 297 295 295 296
316 315 317 320 321 323 320 315 314 313 312 314 315 315 317 317 316 315 314 313 314 314 309 306 304 304 304 304 303 300 298 298 302 306 306 305 302 302 301 297 296 295 295
308 308 309 310 312 315 315 311 311 312 313 316 315 314 316 318 318 321 317 313 311 311 310 306 303 304 305 305 304 304 303 305 305 305 306 304 303 300 296 295 293 292 292
Height
5877 5877 5878 5878 5878 5879 5879 5880 5881 5881 5882 5882 5883 5883 5883 5884 5884 5883 5883 5883 5884 5885 5885 5886 5886 5887 5887 5888 5888 5889 5889 5890 5890 5890 5890 5891 5891 5892 5892 5892 5893 5893 5894
5878 5878 5878 5879 5879 5880 5880 5881 5882 5882 5883 5883 5884 5884 5884 5884 5884 5884 5883 5883 5884 5885 5886 5886 5887 5887 5888 5888 5888 5889 5889 5889 5890 5890 5890 5891 5891 5891 5892 5892 5893 5893 5894
5878 5878 5879 5879 5880 5880 5881 5882 5882 5883 5884 5884 5885 5885 5885 5885 5885 5884 5882 5880 5883 5885 5886 5887 5887 5888 5888 5888 5889 5889 5889 5889 5890 5890 5890 5891 5891 5891 5891 5892 5892 5893 5893
5878 5879 5879 5880 5880 5881 5882 5883 5883 5884 5885 5885 5885 5886 5886 5886 5886 5885 5883 5883 5884 5886 5887 5887 5888 5888 5888 5888 5889 5889 5889 5889 5890 5890 5890 5890 5890 5891 5891 5891 5892 5892 5893
5879 5879 5879 5880 5881 5881 5882 5883 5884 5885 5886 5886 5886 5887 5887 5887 5887 5886 5886 5886 5886 5887 5887 5888 5888 5888 5888 5888 5889 5889 5889 5889 5889 5890 5890 5890 5890 5890 5891 5891 5891 5892 5893
5879 5879 5879 5880 5881 5882 5883 5884 5885 5886 5886 5887 5887 5887 5888 5888 5888 5887 5887 5887 5887 5887 5888 5888 5888 5888 5888 5888 5888 5889 5888 5889 5890 5890 5890 5889 5890 5890 5890 5891 5891 5892 5892
5878 5878 5878 5880 5881 5883 5884 5885 5886 5887 5887 5888 5888 5888 5888 5888 5888 5888 5888 5888 5888 5888 5888 5888 5888 5888 5888 5888 5888 5889 5889 5889 5890 5890 5890 5890 5890 5890 5890 5891 5891 5891 5891
5878 5877 5878 5880 5882 5883 5885 5886 5887 5888 5888 5888 5889 5889 5889 5888 5888 5888 5888 5888 5888 5888 5888 5888 5888 5888 5888 5888 5888 5889 5889 5889 5889 5890 5890 5890 5890 5890 5890 5890 5891 5891 5891
5879 5879 5879 5881 5883 5885 5886 5887 5888 5888 5889 5889 5889 5889 5889 5889 5889 5888 5888 5888 5888 5888 5888 5888 5888 5889 5888 5888 5889 5888 5888 5889 5889 5890 5890 5889 5889 5890 5890 5890 5890 5890 5890
5883 5882 5883 5884 5885 5886 5887 5888 5889 5889 5890 5890 5890 5890 5890 5889 5889 5888 5888 5887 5887 5887 5888 5888 5888 5889 5889 5889 5889 5889 5889 5889 5889 5890 5889 5889 5889 5889 5889 5890 5890 5890 5890
5886 5886 5886 5887 5887 5888 5889 5889 5890 5890 5890 5890 5891 5891 5890 5890 5889 5888 5888 5887 5887 5887 5888 5888 5888 5889 5889 5889 5889 5889 5889 5889 5889 5889 5889 5889 5889 5889 5889 5889 5889 5889 5889
5889 5889 5889 5889 5889 5890 5891 5891 5891 5891 5891 5891 5891 5891 5891 5890 5889 5889 5888 5887 5886 5886 5887 5888 5888 5889 5889 5889 5889 5889 5889 5888 5889 5888 5888 5888 5888 5889 5889 5889 5889 5889 5888
5891 5891 5891 5891 5891 5892 5892 5892 5893 5893 5893 5892 5892 5892 5891 5891 5890 5889 5888 5887 5886 5886 5887 5888 5888 5889 5889 5889 5889 5888 5888 5888 5888 5888 5888 5888 5888 5888 5888 5888 5888 5888 5888
5893 5893 5893 5893 5893 5893 5893 5894 5894 5894 5893 5893 5893 5892 5892 5891 5890 5889 5889 5888 5887 5887 5888 5888 5889 5888 5889 5888 5888 5888 5888 5888 5887 5887 5887 5887 5887 5887 5888 5888 5888 5887 5887
5895 5895 5895 5895 5894 5894 5894 5895 5895 5895 5894 5894 5894 5893 5892 5892 5891 5890 5889 5889 5889 5888 5889 5889 5889 5889 5888 5888 5888 5888 5888 5887 5887 5887 5887 5887 5887 5887 5887 5887 5887 5886 5886
5897 5897 5896 5895 5896 5896 5896 5896 5896 5895 5895 5895 5894 5893 5893 5892 5891 5890 5890 5890 5889 5889 5889 5889 5889 5889 5888 5888 5888 5888 5887 5887 5887 5886 5886 5886 5886 5886 5886 5885 5885 5885 5885
5898 5898 5897 5896 5897 5897 5897 5896 5896 5896 5895 5895 5894 5894 5893 5892 5891 5891 5890 5890 5890 5889 5889 5889 5889 5888 5888 5888 5888 5887 5887 5886 5885 5885 5885 5885 5885 5885 5885 5884 5884 5884 5884
5900 5899 5898 5898 5898 5898 5897 5897 5897 5896 5896 5895 5895 5894 5893 5892 5892 5891 5890 5890 5889 5889 5889 5888 5888 5888 5887 5887 5887 5886 5886 5885 5884 5884 5884 5884 5883 5883 5883 5883 5883 5883 5882
5901 5900 5900 5899 5899 5898 5898 5898 5897 5897 5896 5896 5895 5894 5893 5893 5892 5891 5890 5890 5889 5889 5888 5888 5888 5887 5886 5886 5886 5885 5884 5884 5883 5882 5882 5882 5882 5882 5882 5881 5881 5880 5880
5902 5901 5901 5900 5900 5899 5899 5898 5898 5897 5896 5896 5895 5894 5893 5893 5892 5891 5890 5889 5889 5888 5888 5887 5887 5886 5885 5885 5884 5883 5883 5882 5881 5881 5880 5880 5880 5880 5880 5879 5879 5878 5878
5902 5901 5901 5901 5900 5900 5899 5898 5898 5897 5897 5896 5895 5894 5893 5892 5892 5891 5890 5889 5888 5887 5887 5886 5885 5885 5884 5883 5883 5882 5881 5881 5880 5879 5878 5878 5878 5877 5877 5877 5876 5876 5875
5902 5902 5901 5901 5900 5900 5899 5898 5898 5897 5897 5896 5895 5894 5893 5892 5891 5890 5889 5888 5887 5886 5885 5885 5884 5883 5882 5882 5881 5880 5880 5879 5878 5877 5876 5876 5875 5875 5874 5873 5874 5873 5873
5903 5902 5902 5901 5900 5900 5899 5898 5898 5897 5896 5895 5894 5893 5892 5891 5890 5889 5888 5887 5886 5885 5884 5883 5882 5881 5880 5879 5878 5878 5877 5876 5875 5875 5874 5873 5873 5872 5871 5871 5870 5870 5870
5902 5902 5901 5901 5900 5899 5898 5897 5897 5896 5896 5895 5894 5893 5891 5890 5889 5888 5886 5885 5884 5883 5882 5881 5880 5879 5878 5877 5876 5875 5874 5873 5873 5872 5872 5871 5870 5868 5868 5867 5867 5866 5866
5902 5901 5901 5900 5899 5898 5897 5896 5896 5895 5894 5893 5892 5891 5890 5889 5888 5886 5885 5883 5882 5881 5880 5879 5878 5877 5876 5875 5874 5873 5872 5871 5870 5869 5869 5868 5867 5865 5865 5864 5863 5863 5862
5900 5900 5899 5899 5898 5897 5896 5895 5894 5893 5892 5891 5890 5890 5888 5887 5885 5884 5883 5881 5880 5879 5878 5876 5875 5874 5873 5872 5871 5870 5869 5868 5867 5866 5865 5864 5864 5863 5861 5860 5860 5859 5858